Find Starlink 35859

NORAD ID: 67185 Int'l Des: 2025-303 Owner: SPXS Country: US Constellation: starlink operational
LEOCIRCULAR

当前视图

正在加载3D地球...

关于 Starlink 35859

正在加载描述...

即将过境

Passes for default location (London). Set your location on the main map for personalized predictions.

高度历史

Loading altitude history...

两行轨道根数

1 67185U 25303Y 26146.26785957 .00018078 00000-0 66552-3 0 9999
2 67185 43.0014 232.2532 0000765 271.6854 88.3910 15.27547351 24602
Epoch: May 26, 2026 • Age: 14 hours

当前状态

高度 488.8 km
速度 7.62 km/s
星下点 -24.89°S, 9.1°E
发射日期 Dec 17, 2025
运行时间 0.4 years
类型 internet

技术详情

分类 Payload
质量 575.00 kg
干质量 530.00 kg
总质量 575.00 kg
长度 0.30 m
直径 4.10 m
跨度 29.00 m
形状 Box + pan
制造商 SPXS
平台类型 Starlink V2MO
阶段状态 In Orbit
所有者/国家 SPXS/US

Most Searched